Volver al catálogo

THORAD DELTA 1 DEB

ActivoSSO
NORAD 8166·DEBRIS·🇺🇸 United States

Lanzado Nov 15, 1974 desde Vandenberg Space Force Base

Loading…

Próximos Pases (próximas 24 horas)

TLE

ActualizadoSource: Space-Track

Época: Sep 13, 2026, 22:42 UTC

1  8166U 74089AG  26256.94628366  .00000021  00000-0  42887-3 0  9999
2  8166 102.0289 254.7390 0038158 189.4338 198.1262 12.51681507365061

Sigue THORAD DELTA 1 DEB en tiempo real con AllMySat

Download on the App Store